Weather Roundup
Issued by NWS

Home | Current Version | Previous Version | Text Only | Print | Product List | Glossary On
Versions: 1 2 3 4 5 6 7 8 9 10 11 12 13 14 15 16 17 18 19 20 21 22 23 24 25 26 27 28 29 30 31 32 33 34 35 36 37 38 39 40 41 42 43 44 45 46 47 48 49 50
000
NZUS93 KARX 040810
HRRWXR

CURRENT HOURLY OBSERVATIONS ACROSS
MUCH OF THE UPPER MISSISSIPPI VALLEY
NATIONAL WEATHER SERVICE LA CROSSE WI
200 AM CST WED MAR 04 2015


...SOUTHEAST MINNESOTA...


CITY           SKY/WX    TMP DP  RH WIND       PRES   REMARKS
ROCHESTER      CLEAR      4  -4  69 NW17      30.02R WCI -16
ROCHESTER/MAYO FAIR       6  -4  63 W24       30.03R WCI -16
WINONA         CLEAR     10   1  67 NW14G20   30.07R WCI  -5
AUSTIN         CLEAR      5  -2  72 NW16G26   30.06R WCI -14
ALBERT LEA     PTCLDY     7  -2  66 NW9       30.08R WCI  -7
DODGE CENTER   PTCLDY     5  -2  72 NW13      30.03R WCI -12
PRESTON        CLEAR      4  -3  74 NW21G28   30.03R WCI -17
OWATONNA       PTCLDY     3  -2  78 W12       30.08R WCI -13
FARIBAULT      PTCLDY     3  -6  66 W10       30.08R WCI -12
$$

...ELSEWHERE IN MINNESOTA...


CITY           SKY/WX    TMP DP  RH WIND       PRES   REMARKS
MINNEAPOLIS    PTCLDY     3  -7  63 W9        30.08R WCI -12
INTNL FALLS    CLEAR     -7 -15  68 W8        29.90R WCI -23
DULUTH         CLEAR     -2 -11  65 W14       29.88R WCI -21
RED WING       CLEAR      7  -2  66 NW8       30.06R WCI  -6
REDWOOD FALLS  CLEAR      3  -7  63 NW9       30.12R WCI -12
MANKATO        PTCLDY     3  -6  66 NW15      30.10R WCI -15
FAIRMONT       PTCLDY     7  -6  56 NW15      30.11R WCI -11
$$

...SOUTHWEST WISCONSIN...


CITY           SKY/WX    TMP DP  RH WIND       PRES   REMARKS
LA CROSSE      CLEAR     11   1  64 NW14      30.04R WCI  -5
PRAIRIE DU CHI CLEAR     11   2  66 NW15      30.04R WCI  -5
BOSCOBEL       FAIR      13   4  67 W7        30.02R WCI   3
LONE ROCK      CLEAR     14   5  67 W15       29.98R WCI  -1
PLATTEVILLE    CLEAR     11   6  79 W9        29.97R WCI  -2
FORT MC COY    PTCLDY    12   3  67 W10G18    30.00R WCI  -1
CAMP DOUGLAS   CLEAR     12   4  69 W16G24    29.94R WCI  -5
VIROQUA        FAIR       9   2  74 NW13      29.95R WCI  -7
WIS DELLS      PTCLDY    14   7  74 W9        29.93R WCI   2
$$

...ELSEWHERE IN WISCONSIN...


CITY           SKY/WX    TMP DP  RH WIND       PRES   REMARKS
MILWAUKEE      PTCLDY    27  18  69 W9        29.86R WCI  18
MADISON        CLEAR     18  10  71 NW10      29.92R WCI   6
GREEN BAY      CLEAR     19   5  54 W15       29.85R WCI   5
EAU CLAIRE     CLEAR      5  -5  63 W12       30.01R WCI -11
BLACK RVR FLS  FAIR      11  -1  59 NW6       29.99R WCI   1
MEDFORD        CLEAR      6  -2  70 W13G20    29.87R WCI -10
WAUSAU         CLEAR     10   1  67 NW13      29.85R WCI  -5
WIS RAPIDS     CLEAR     11   1  64 W7        29.92R WCI   0
MARSHFIELD     CLEAR      9  -1  64 W13G22    29.90R WCI  -7
RICE LAKE      CLEAR      3  -4  72 W8        29.99R WCI -10
$$

...NORTHEAST IOWA...


CITY           SKY/WX    TMP DP  RH WIND       PRES   REMARKS
DECORAH        PTCLDY     7   0  72 NW12G21   30.02R WCI  -9
MASON CITY     CLEAR      7  -1  70 NW20      30.09R WCI -13
CHARLES CITY   MOCLDY     7   0  72 NW18G25   30.07R WCI -12
OELWEIN        CLOUDY     9   0  66 NW23      30.04R WCI -12
$$

...ELSEWHERE IN IOWA...


CITY           SKY/WX    TMP DP  RH WIND       PRES   REMARKS
DES MOINES     CLOUDY    15   3  59 N9        30.14R WCI   3
IOWA CITY      CLEAR     12   5  73 NW13      30.09R WCI  -3
FORT DODGE     MOCLDY    10   0  61 NW7G20    30.13S WCI   0
$$

...NORTHERN ILLINOIS...


CITY           SKY/WX    TMP DP  RH WIND       PRES   REMARKS
CHICAGO-OHARE  CLOUDY    29  21  72 W10       29.87S WCI  20
CHICAGO-MIDWAY CLOUDY    32  23  69 W9        29.89R WCI  24
MOLINE         PTCLDY    16   7  67 NW16      30.02R WCI   1
ROCKFORD       PTCLDY    19  11  70 NW16      29.93R WCI   4
PEORIA         MOCLDY    25  17  72 N10       29.97F WCI  15
$$

NOTE: "FAIR" INDICATES FEW OR NO CLOUDS BELOW 12,000 FEET WITH NO
SIGNIFICANT WEATHER AND/OR OBSTRUCTIONS TO VISIBILITY. WIND
SPEEDS ARE IN MILES-PER-HOUR.



USA.gov is the U.S. government's official web portal to all federal, state and local government web resources and services.